| time (UTC) | temp C | wind direction | speed KPH | gust KPH | rain 1hr cm | rain 24hr cm | rain mn cm | humidity % | barometer mb |
| 20260510031047 | 10 | 76 | 0.0 | 3.2 | 0.00 | 0.00 | 0.00 | 88 | 1014.2 |
| 20260510030542 | 10 | 116 | 0.0 | 4.8 | 0.00 | 0.00 | 0.00 | 88 | 1014.2 |
| 20260510030040 | 10 | 193 | 0.0 | 4.8 | 0.00 | 0.00 | 0.00 | 88 | 1014.1 |
| 20260510025537 | 10 | 78 | 1.6 | 3.2 | 0.00 | 0.00 | 0.00 | 88 | 1014.4 |
| 20260510025034 | 10 | 89 | 0.0 | 3.2 | 0.00 | 0.00 | 0.00 | 88 | 1014.2 |
| 20260510024531 | 10 | 209 | 1.6 | 4.8 | 0.00 | 0.00 | 0.00 | 87 | 1014.0 |
| 20260510024027 | 10 | 109 | 1.6 | 3.2 | 0.00 | 0.00 | 0.00 | 87 | 1014.3 |
| 20260510023523 | 10 | 190 | 0.0 | 3.2 | 0.00 | 0.00 | 0.00 | 86 | 1014.0 |
| 20260510023021 | 10 | 147 | 0.0 | 3.2 | 0.00 | 0.00 | 0.00 | 86 | 1014.1 |
| 20260510022520 | 10 | 99 | 1.6 | 3.2 | 0.00 | 0.00 | 0.00 | 85 | 1013.9 |
| 20260510022014 | 10 | 206 | 0.0 | 3.2 | 0.00 | 0.00 | 0.00 | 85 | 1014.0 |
| 20260510021511 | 10 | 157 | 1.6 | 1.6 | 0.00 | 0.00 | 0.00 | 84 | 1013.9 |
| 20260510021008 | 11 | 108 | 1.6 | 3.2 | 0.00 | 0.00 | 0.00 | 83 | 1013.7 |
| 20260510020503 | 11 | 110 | 3.2 | 4.8 | 0.00 | 0.00 | 0.00 | 83 | 1013.7 |
| 20260510015958 | 11 | 147 | 0.0 | 3.2 | 0.00 | 0.00 | 0.00 | 83 | 1013.7 |
| 20260510015454 | 11 | 230 | 3.2 | 3.2 | 0.00 | 0.00 | 0.00 | 83 | 1013.5 |
| 20260510014949 | 11 | 112 | 0.0 | 1.6 | 0.00 | 0.00 | 0.00 | 83 | 1013.4 |
| 20260510014447 | 11 | 96 | 3.2 | 3.2 | 0.00 | 0.00 | 0.00 | 82 | 1013.4 |
| 20260510013944 | 11 | 122 | 0.0 | 3.2 | 0.00 | 0.00 | 0.00 | 82 | 1013.3 |
| 20260510013433 | 11 | 89 | 0.0 | 0.0 | 0.00 | 0.00 | 0.00 | 82 | 1013.2 |
| 20260510012929 | 11 | 122 | 0.0 | 1.6 | 0.00 | 0.00 | 0.00 | 81 | 1013.1 |
| 20260510012424 | 11 | 60 | 0.0 | 1.6 | 0.00 | 0.00 | 0.00 | 79 | 1013.2 |
| 20260510011918 | 12 | 224 | 0.0 | 3.2 | 0.00 | 0.00 | 0.00 | 79 | 1012.9 |
| 20260510011414 | 12 | 93 | 0.0 | 1.6 | 0.00 | 0.00 | 0.00 | 78 | 1012.9 |
| 20260510010910 | 12 | 166 | 0.0 | 1.6 | 0.00 | 0.00 | 0.00 | 77 | 1012.9 |
| 20260510010408 | 12 | 240 | 0.0 | 1.6 | 0.00 | 0.00 | 0.00 | 77 | 1012.7 |
| 20260510005904 | 12 | 95 | 0.0 | 3.2 | 0.00 | 0.00 | 0.00 | 75 | 1012.6 |
| 20260510005400 | 13 | 50 | 0.0 | 0.0 | 0.00 | 0.00 | 0.00 | 72 | 1012.5 |
| 20260510004858 | 13 | 76 | 0.0 | 0.0 | 0.00 | 0.00 | 0.00 | 70 | 1012.5 |
| 20260510004355 | 13 | 113 | 0.0 | 4.8 | 0.00 | 0.00 | 0.00 | 68 | 1012.3 |
| 20260510003853 | 14 | 42 | 0.0 | 1.6 | 0.00 | 0.00 | 0.00 | 66 | 1012.1 |
| 20260510003350 | 15 | 229 | 1.6 | 3.2 | 0.00 | 0.00 | 0.00 | 64 | 1012.0 |
| 20260510002848 | 15 | 136 | 1.6 | 4.8 | 0.00 | 0.00 | 0.00 | 61 | 1012.1 |
| 20260510002346 | 16 | 309 | 0.0 | 0.0 | 0.00 | 0.00 | 0.00 | 57 | 1012.1 |
| 20260510001842 | 16 | 116 | 0.0 | 1.6 | 0.00 | 0.00 | 0.00 | 54 | 1011.8 |
| 20260510001341 | 17 | 51 | 0.0 | 3.2 | 0.00 | 0.00 | 0.00 | 53 | 1012.0 |
| 20260510000836 | 17 | 65 | 4.8 | 4.8 | 0.00 | 0.00 | 0.00 | 53 | 1012.2 |
| 20260510000334 | 17 | 94 | 3.2 | 4.8 | 0.00 | 0.00 | 0.00 | 52 | 1012.1 |
| 20260509235830 | 17 | 259 | 0.0 | 8.0 | 0.00 | 0.00 | 0.00 | 51 | 1012.0 |
| 20260509235327 | 17 | 107 | 4.8 | 8.0 | 0.00 | 0.00 | 0.00 | 52 | 1012.0 |
| 20260509234823 | 17 | 349 | 3.2 | 4.8 | 0.00 | 0.00 | 0.00 | 53 | 1011.7 |
| 20260509234320 | 17 | 259 | 6.4 | 6.4 | 0.00 | 0.00 | 0.00 | 51 | 1011.9 |
| 20260509233818 | 17 | 97 | 4.8 | 4.8 | 0.00 | 0.00 | 0.00 | 50 | 1011.8 |
| 20260509233316 | 17 | 105 | 6.4 | 14.5 | 0.00 | 0.00 | 0.00 | 50 | 1011.8 |
| 20260509232811 | 18 | 269 | 0.0 | 3.2 | 0.00 | 0.00 | 0.00 | 53 | 1011.7 |
| 20260509232309 | 18 | 297 | 1.6 | 8.0 | 0.00 | 0.00 | 0.00 | 50 | 1011.7 |
| 20260509231805 | 18 | 209 | 3.2 | 11.3 | 0.00 | 0.00 | 0.00 | 50 | 1011.9 |
| 20260509231302 | 18 | 190 | 4.8 | 8.0 | 0.00 | 0.00 | 0.00 | 49 | 1011.7 |
| 20260509230800 | 18 | 199 | 4.8 | 11.3 | 0.00 | 0.00 | 0.00 | 48 | 1011.9 |
| 20260509230256 | 19 | 216 | 4.8 | 9.7 | 0.00 | 0.00 | 0.00 | 49 | 1011.7 |
| 20260509225751 | 20 | 230 | 9.7 | 12.9 | 0.00 | 0.00 | 0.00 | 47 | 1011.7 |
| 20260509225248 | 20 | 241 | 4.8 | 6.4 | 0.00 | 0.00 | 0.00 | 46 | 1011.4 |
| 20260509224744 | 20 | 220 | 3.2 | 6.4 | 0.00 | 0.00 | 0.00 | 47 | 1011.7 |
| 20260509224241 | 20 | 198 | 3.2 | 9.7 | 0.00 | 0.00 | 0.00 | 45 | 1011.9 |
| 20260509223738 | 19 | 39 | 4.8 | 11.3 | 0.00 | 0.00 | 0.00 | 47 | 1011.7 |
| 20260509223235 | 20 | 354 | 6.4 | 19.3 | 0.00 | 0.00 | 0.00 | 46 | 1011.9 |
| 20260509222732 | 20 | 315 | 4.8 | 11.3 | 0.00 | 0.00 | 0.00 | 47 | 1012.2 |
| 20260509222227 | 20 | 272 | 3.2 | 8.0 | 0.00 | 0.00 | 0.00 | 46 | 1012.2 |
| 20260509221723 | 19 | 177 | 4.8 | 17.7 | 0.00 | 0.00 | 0.00 | 45 | 1012.1 |
| 20260509221219 | 20 | 60 | 6.4 | 12.9 | 0.00 | 0.00 | 0.00 | 47 | 1012.1 |
| 20260509220715 | 18 | 304 | 9.7 | 9.7 | 0.00 | 0.00 | 0.00 | 49 | 1012.2 |
| 20260509220212 | 18 | 241 | 11.3 | 17.7 | 0.00 | 0.00 | 0.00 | 48 | 1012.3 |
| 20260509215707 | 18 | 66 | 0.0 | 8.0 | 0.00 | 0.00 | 0.00 | 48 | 1012.1 |
| 20260509215204 | 18 | 231 | 8.0 | 11.3 | 0.00 | 0.00 | 0.00 | 48 | 1012.3 |
| 20260509214701 | 18 | 26 | 6.4 | 16.1 | 0.00 | 0.00 | 0.00 | 49 | 1012.4 |
| 20260509214158 | 18 | 332 | 3.2 | 17.7 | 0.00 | 0.00 | 0.00 | 46 | 1012.2 |
| 20260509213655 | 19 | 232 | 16.1 | 22.5 | 0.00 | 0.00 | 0.00 | 45 | 1012.1 |
| 20260509213151 | 20 | 222 | 11.3 | 19.3 | 0.00 | 0.00 | 0.00 | 45 | 1012.1 |
| 20260509212648 | 19 | 354 | 4.8 | 9.7 | 0.00 | 0.00 | 0.00 | 45 | 1012.1 |
| 20260509212145 | 19 | 198 | 4.8 | 12.9 | 0.00 | 0.00 | 0.00 | 44 | 1012.0 |
| 20260509211641 | 18 | 259 | 3.2 | 20.9 | 0.00 | 0.00 | 0.00 | 44 | 1012.1 |
| 20260509211138 | 20 | 240 | 8.0 | 14.5 | 0.00 | 0.00 | 0.00 | 45 | 1011.8 |
| 20260509210635 | 18 | 221 | 11.3 | 16.1 | 0.00 | 0.00 | 0.00 | 47 | 1011.9 |
| 20260509210132 | 19 | 0 | 1.6 | 14.5 | 0.00 | 0.00 | 0.00 | 49 | 1011.7 |
| 20260509205627 | 20 | 208 | 8.0 | 12.9 | 0.00 | 0.00 | 0.00 | 44 | 1011.4 |
| 20260509205121 | 20 | 249 | 4.8 | 8.0 | 0.00 | 0.00 | 0.00 | 48 | 1011.7 |
| 20260509204617 | 19 | 281 | 4.8 | 8.0 | 0.00 | 0.00 | 0.00 | 45 | 1011.5 |
| 20260509204114 | 19 | 356 | 8.0 | 16.1 | 0.00 | 0.00 | 0.00 | 48 | 1011.7 |
| 20260509203610 | 18 | 286 | 6.4 | 9.7 | 0.00 | 0.00 | 0.00 | 51 | 1011.5 |
| 20260509203103 | 18 | 5 | 8.0 | 16.1 | 0.00 | 0.00 | 0.00 | 48 | 1011.5 |
| 20260509202557 | 18 | 338 | 16.1 | 17.7 | 0.00 | 0.00 | 0.00 | 49 | 1011.8 |
| 20260509202053 | 18 | 130 | 1.6 | 9.7 | 0.00 | 0.00 | 0.00 | 50 | 1011.8 |
| 20260509201548 | 19 | 321 | 6.4 | 17.7 | 0.00 | 0.00 | 0.00 | 49 | 1011.7 |
| 20260509201046 | 19 | 301 | 8.0 | 11.3 | 0.00 | 0.00 | 0.00 | 49 | 1011.7 |
| 20260509200545 | 18 | 341 | 4.8 | 6.4 | 0.00 | 0.00 | 0.00 | 49 | 1011.5 |
| 20260509200042 | 18 | 292 | 4.8 | 8.0 | 0.00 | 0.00 | 0.00 | 49 | 1011.9 |
| 20260509195537 | 18 | 297 | 3.2 | 11.3 | 0.00 | 0.00 | 0.00 | 51 | 1011.7 |
| 20260509195032 | 18 | 337 | 12.9 | 16.1 | 0.00 | 0.00 | 0.00 | 49 | 1011.7 |
| 20260509194527 | 18 | 256 | 0.0 | 11.3 | 0.00 | 0.00 | 0.00 | 52 | 1011.8 |
| 20260509194025 | 18 | 358 | 4.8 | 6.4 | 0.00 | 0.00 | 0.00 | 50 | 1011.7 |
| 20260509193524 | 18 | 10 | 0.0 | 8.0 | 0.00 | 0.00 | 0.00 | 49 | 1011.9 |
| 20260509193022 | 18 | 7 | 8.0 | 9.7 | 0.00 | 0.00 | 0.00 | 48 | 1011.5 |
| 20260509192518 | 18 | 307 | 6.4 | 8.0 | 0.00 | 0.00 | 0.00 | 50 | 1011.8 |
| 20260509192013 | 18 | 327 | 1.6 | 8.0 | 0.00 | 0.00 | 0.00 | 47 | 1011.7 |
| 20260509191508 | 18 | 61 | 4.8 | 16.1 | 0.00 | 0.00 | 0.00 | 48 | 1011.7 |
| 20260509191004 | 18 | 218 | 8.0 | 17.7 | 0.00 | 0.00 | 0.00 | 47 | 1011.7 |
| 20260509190501 | 18 | 7 | 3.2 | 8.0 | 0.00 | 0.00 | 0.00 | 47 | 1011.4 |
| 20260509185959 | 19 | 0 | 6.4 | 9.7 | 0.00 | 0.00 | 0.00 | 47 | 1011.7 |
| 20260509185455 | 19 | 305 | 8.0 | 12.9 | 0.00 | 0.00 | 0.00 | 43 | 1011.5 |
| 20260509184952 | 19 | 182 | 4.8 | 8.0 | 0.00 | 0.00 | 0.00 | 46 | 1011.4 |
| 20260509184451 | 19 | 215 | 4.8 | 12.9 | 0.00 | 0.00 | 0.00 | 43 | 1011.5 |
| 20260509183947 | 19 | 228 | 9.7 | 24.1 | 0.00 | 0.00 | 0.00 | 46 | 1011.3 |
| 20260509183441 | 18 | 203 | 8.0 | 11.3 | 0.00 | 0.00 | 0.00 | 44 | 1011.5 |
| 20260509182938 | 19 | 164 | 1.6 | 12.9 | 0.00 | 0.00 | 0.00 | 43 | 1011.7 |
| 20260509182434 | 19 | 10 | 1.6 | 16.1 | 0.00 | 0.00 | 0.00 | 42 | 1011.5 |
| 20260509181931 | 18 | 29 | 4.8 | 11.3 | 0.00 | 0.00 | 0.00 | 45 | 1011.3 |
| 20260509181430 | 18 | 253 | 14.5 | 16.1 | 0.00 | 0.00 | 0.00 | 45 | 1011.5 |
| 20260509180927 | 18 | 244 | 4.8 | 11.3 | 0.00 | 0.00 | 0.00 | 48 | 1011.5 |
| 20260509180421 | 18 | 215 | 3.2 | 14.5 | 0.00 | 0.00 | 0.00 | 45 | 1011.7 |
| 20260509175918 | 18 | 267 | 3.2 | 8.0 | 0.00 | 0.00 | 0.00 | 43 | 1011.5 |
| 20260509175409 | 19 | 202 | 8.0 | 14.5 | 0.00 | 0.00 | 0.00 | 45 | 1011.7 |
| 20260509174905 | 18 | 201 | 6.4 | 11.3 | 0.00 | 0.00 | 0.00 | 44 | 1011.7 |
| 20260509174401 | 17 | 219 | 6.4 | 14.5 | 0.00 | 0.00 | 0.00 | 46 | 1011.7 |
| 20260509173857 | 18 | 175 | 11.3 | 19.3 | 0.00 | 0.00 | 0.00 | 46 | 1011.9 |
| 20260509173352 | 17 | 195 | 4.8 | 11.3 | 0.00 | 0.00 | 0.00 | 44 | 1011.9 |
| 20260509172848 | 17 | 114 | 4.8 | 11.3 | 0.00 | 0.00 | 0.00 | 49 | 1011.8 |
| 20260509172345 | 17 | 215 | 8.0 | 17.7 | 0.00 | 0.00 | 0.00 | 45 | 1012.1 |
| 20260509171841 | 17 | 234 | 4.8 | 11.3 | 0.00 | 0.00 | 0.00 | 46 | 1011.9 |
| 20260509171337 | 17 | 262 | 0.0 | 12.9 | 0.00 | 0.00 | 0.00 | 48 | 1012.0 |
| 20260509170834 | 17 | 252 | 8.0 | 8.0 | 0.00 | 0.00 | 0.00 | 50 | 1012.3 |
| 20260509170330 | 17 | 241 | 9.7 | 12.9 | 0.00 | 0.00 | 0.00 | 46 | 1012.3 |
| 20260509165824 | 17 | 245 | 8.0 | 9.7 | 0.00 | 0.00 | 0.00 | 48 | 1012.3 |
| 20260509165319 | 17 | 256 | 4.8 | 12.9 | 0.00 | 0.00 | 0.00 | 47 | 1012.3 |
| 20260509164815 | 16 | 228 | 3.2 | 12.9 | 0.00 | 0.00 | 0.00 | 47 | 1012.5 |
| 20260509164312 | 16 | 123 | 1.6 | 4.8 | 0.00 | 0.00 | 0.00 | 49 | 1012.2 |
| 20260509163808 | 16 | 223 | 0.0 | 4.8 | 0.00 | 0.00 | 0.00 | 49 | 1012.3 |
| 20260509163305 | 16 | 204 | 3.2 | 8.0 | 0.00 | 0.00 | 0.00 | 48 | 1012.5 |
| 20260509162804 | 16 | 131 | 3.2 | 6.4 | 0.00 | 0.00 | 0.00 | 54 | 1012.5 |
| 20260509162257 | 16 | 199 | 3.2 | 4.8 | 0.00 | 0.00 | 0.00 | 50 | 1012.4 |
| 20260509161753 | 15 | 202 | 0.0 | 4.8 | 0.00 | 0.00 | 0.00 | 51 | 1012.5 |
| 20260509161249 | 15 | 209 | 0.0 | 3.2 | 0.00 | 0.00 | 0.00 | 49 | 1012.5 |
| 20260509160745 | 16 | 229 | 4.8 | 4.8 | 0.00 | 0.00 | 0.00 | 51 | 1012.2 |
| 20260509160241 | 15 | 336 | 0.0 | 8.0 | 0.00 | 0.00 | 0.00 | 51 | 1012.3 |
| 20260509155737 | 15 | 218 | 1.6 | 3.2 | 0.00 | 0.00 | 0.00 | 49 | 1012.7 |
| 20260509155234 | 16 | 230 | 9.7 | 9.7 | 0.00 | 0.00 | 0.00 | 59 | 1012.8 |
| 20260509154729 | 15 | 212 | 3.2 | 6.4 | 0.00 | 0.00 | 0.00 | 55 | 1012.7 |
| 20260509154227 | 15 | 221 | 6.4 | 11.3 | 0.00 | 0.00 | 0.00 | 56 | 1012.8 |
| 20260509153724 | 15 | 219 | 4.8 | 6.4 | 0.00 | 0.00 | 0.00 | 58 | 1012.8 |
| 20260509153220 | 15 | 48 | 1.6 | 3.2 | 0.00 | 0.00 | 0.00 | 60 | 1012.9 |
| 20260509152716 | 14 | 203 | 1.6 | 3.2 | 0.00 | 0.00 | 0.00 | 58 | 1013.2 |
| 20260509152213 | 15 | 311 | 3.2 | 3.2 | 0.00 | 0.00 | 0.00 | 58 | 1013.5 |
| 20260509151710 | 14 | 81 | 0.0 | 1.6 | 0.00 | 0.00 | 0.00 | 60 | 1013.3 |
| 20260509151207 | 13 | 301 | 0.0 | 1.6 | 0.00 | 0.00 | 0.00 | 63 | 1013.3 |
| 20260509150705 | 13 | 36 | 0.0 | 4.8 | 0.00 | 0.00 | 0.00 | 65 | 1013.4 |
| 20260509150203 | 14 | 255 | 1.6 | 4.8 | 0.00 | 0.00 | 0.00 | 65 | 1013.4 |
| 20260509145659 | 14 | 202 | 4.8 | 6.4 | 0.00 | 0.00 | 0.00 | 65 | 1013.3 |
| 20260509145154 | 14 | 237 | 0.0 | 6.4 | 0.00 | 0.00 | 0.00 | 64 | 1013.0 |
| 20260509144651 | 14 | 321 | 3.2 | 6.4 | 0.00 | 0.00 | 0.00 | 64 | 1013.2 |
| 20260509144148 | 14 | 347 | 3.2 | 4.8 | 0.00 | 0.00 | 0.00 | 64 | 1013.0 |
| 20260509143645 | 13 | 328 | 1.6 | 6.4 | 0.00 | 0.00 | 0.00 | 69 | 1013.2 |
| 20260509143143 | 13 | 338 | 1.6 | 4.8 | 0.00 | 0.00 | 0.00 | 71 | 1013.2 |
| 20260509142638 | 13 | 350 | 4.8 | 6.4 | 0.00 | 0.00 | 0.00 | 67 | 1013.1 |
| 20260509142135 | 13 | 8 | 4.8 | 9.7 | 0.00 | 0.00 | 0.00 | 66 | 1013.2 |
| 20260509141631 | 13 | 142 | 0.0 | 3.2 | 0.00 | 0.00 | 0.00 | 68 | 1013.1 |
| 20260509141127 | 13 | 335 | 4.8 | 4.8 | 0.00 | 0.00 | 0.00 | 73 | 1013.0 |
| 20260509140624 | 12 | 28 | 0.0 | 4.8 | 0.00 | 0.00 | 0.00 | 71 | 1013.0 |
| 20260509140122 | 12 | 235 | 4.8 | 4.8 | 0.00 | 0.00 | 0.00 | 72 | 1013.3 |
| 20260509135619 | 11 | 240 | 0.0 | 1.6 | 0.00 | 0.00 | 0.00 | 73 | 1013.4 |
| 20260509135117 | 12 | 68 | 3.2 | 4.8 | 0.00 | 0.00 | 0.00 | 73 | 1013.1 |
| 20260509134613 | 11 | 101 | 3.2 | 3.2 | 0.00 | 0.00 | 0.00 | 74 | 1013.3 |
| 20260509134111 | 11 | 240 | 3.2 | 3.2 | 0.00 | 0.00 | 0.00 | 74 | 1013.3 |
| 20260509133608 | 11 | 283 | 1.6 | 1.6 | 0.00 | 0.00 | 0.00 | 76 | 1013.5 |
| 20260509133105 | 11 | 186 | 0.0 | 4.8 | 0.00 | 0.00 | 0.00 | 76 | 1013.7 |
| 20260509132603 | 11 | 248 | 0.0 | 1.6 | 0.00 | 0.00 | 0.00 | 77 | 1013.6 |
| 20260509132102 | 11 | 81 | 1.6 | 3.2 | 0.00 | 0.00 | 0.00 | 77 | 1013.4 |
| 20260509131557 | 11 | 52 | 0.0 | 3.2 | 0.00 | 0.00 | 0.00 | 79 | 1013.4 |
| 20260509131054 | 10 | 36 | 0.0 | 4.8 | 0.00 | 0.00 | 0.00 | 77 | 1013.4 |
| 20260509130550 | 11 | 21 | 4.8 | 4.8 | 0.00 | 0.00 | 0.00 | 77 | 1013.7 |
| 20260509130047 | 10 | 310 | 0.0 | 1.6 | 0.00 | 0.00 | 0.00 | 81 | 1013.4 |
| 20260509125543 | 10 | 50 | 1.6 | 3.2 | 0.00 | 0.00 | 0.00 | 82 | 1013.3 |
| 20260509125040 | 10 | 319 | 0.0 | 3.2 | 0.00 | 0.00 | 0.00 | 82 | 1013.3 |
| 20260509124536 | 10 | 233 | 1.6 | 4.8 | 0.00 | 0.00 | 0.00 | 82 | 1013.5 |
| 20260509124034 | 10 | 89 | 0.0 | 0.0 | 0.00 | 0.00 | 0.00 | 83 | 1013.1 |
| 20260509123532 | 10 | 22 | 0.0 | 1.6 | 0.00 | 0.00 | 0.00 | 83 | 1013.2 |
| 20260509123027 | 10 | 357 | 4.8 | 4.8 | 0.00 | 0.00 | 0.00 | 83 | 1013.4 |
| 20260509122523 | 10 | 17 | 3.2 | 4.8 | 0.00 | 0.00 | 0.00 | 83 | 1013.3 |
| 20260509122020 | 10 | 78 | 1.6 | 3.2 | 0.00 | 0.00 | 0.00 | 83 | 1013.2 |
| 20260509121512 | 10 | 60 | 0.0 | 1.6 | 0.00 | 0.00 | 0.00 | 80 | 1013.3 |
| 20260509121010 | 10 | 219 | 0.0 | 0.0 | 0.00 | 0.00 | 0.00 | 80 | 1013.4 |
| 20260509120508 | 10 | 22 | 0.0 | 1.6 | 0.00 | 0.00 | 0.00 | 79 | 1013.4 |
| 20260509120006 | 10 | 31 | 3.2 | 3.2 | 0.00 | 0.00 | 0.00 | 79 | 1013.3 |
| 20260509115503 | 10 | 55 | 1.6 | 3.2 | 0.00 | 0.00 | 0.00 | 80 | 1013.4 |
| 20260509115000 | 10 | 32 | 0.0 | 0.0 | 0.00 | 0.00 | 0.00 | 80 | 1013.5 |
| 20260509114458 | 10 | 44 | 0.0 | 1.6 | 0.00 | 0.00 | 0.00 | 80 | 1013.6 |
| 20260509113957 | 10 | 29 | 0.0 | 1.6 | 0.00 | 0.00 | 0.00 | 81 | 1013.7 |
| 20260509113454 | 9 | 73 | 1.6 | 4.8 | 0.00 | 0.00 | 0.00 | 82 | 1013.5 |
| 20260509112951 | 9 | 92 | 3.2 | 3.2 | 0.00 | 0.00 | 0.00 | 86 | 1013.7 |
| 20260509112448 | 9 | 34 | 0.0 | 0.0 | 0.00 | 0.00 | 0.00 | 87 | 1013.9 |
| 20260509111944 | 9 | 55 | 0.0 | 0.0 | 0.00 | 0.00 | 0.00 | 88 | 1013.5 |
| 20260509111442 | 8 | 89 | 0.0 | 0.0 | 0.00 | 0.00 | 0.00 | 88 | 1013.6 |
| 20260509110940 | 8 | 32 | 0.0 | 0.0 | 0.00 | 0.00 | 0.00 | 87 | 1013.4 |
| 20260509110435 | 8 | 47 | 0.0 | 0.0 | 0.00 | 0.00 | 0.00 | 88 | 1013.6 |
| 20260509105934 | 8 | 180 | 0.0 | 1.6 | 0.00 | 0.00 | 0.00 | 88 | 1013.6 |
| 20260509105432 | 8 | 180 | 1.6 | 3.2 | 0.00 | 0.00 | 0.00 | 88 | 1013.7 |
| 20260509104929 | 8 | 210 | 0.0 | 0.0 | 0.00 | 0.00 | 0.00 | 87 | 1013.4 |
| 20260509104426 | 8 | 29 | 0.0 | 3.2 | 0.00 | 0.00 | 0.00 | 87 | 1013.6 |
| 20260509103923 | 8 | 13 | 1.6 | 3.2 | 0.00 | 0.00 | 0.00 | 87 | 1013.4 |
| 20260509103420 | 8 | 233 | 0.0 | 1.6 | 0.00 | 0.00 | 0.00 | 87 | 1013.4 |
| 20260509102918 | 8 | 36 | 0.0 | 3.2 | 0.00 | 0.00 | 0.00 | 87 | 1013.5 |
| 20260509102416 | 8 | 1 | 1.6 | 1.6 | 0.00 | 0.00 | 0.00 | 87 | 1013.4 |
| 20260509101911 | 8 | 76 | 0.0 | 1.6 | 0.00 | 0.00 | 0.00 | 87 | 1013.5 |
| 20260509101408 | 8 | 188 | 3.2 | 3.2 | 0.00 | 0.00 | 0.00 | 87 | 1013.6 |
| 20260509100905 | 8 | 32 | 0.0 | 3.2 | 0.00 | 0.00 | 0.00 | 86 | 1013.9 |
| 20260509100402 | 8 | 157 | 0.0 | 3.2 | 0.00 | 0.00 | 0.00 | 86 | 1013.5 |
| 20260509095859 | 8 | 319 | 0.0 | 4.8 | 0.00 | 0.00 | 0.00 | 85 | 1013.6 |
| 20260509095356 | 8 | 339 | 1.6 | 3.2 | 0.00 | 0.00 | 0.00 | 84 | 1013.3 |
| 20260509094853 | 9 | 334 | 3.2 | 3.2 | 0.00 | 0.00 | 0.00 | 84 | 1013.6 |
| 20260509094350 | 9 | 273 | 4.8 | 4.8 | 0.00 | 0.00 | 0.00 | 82 | 1013.2 |
| 20260509093848 | 9 | 94 | 6.4 | 14.5 | 0.00 | 0.00 | 0.00 | 85 | 1013.4 |
| 20260509093344 | 8 | 2 | 8.0 | 8.0 | 0.00 | 0.00 | 0.00 | 87 | 1013.3 |
| 20260509092843 | 8 | 83 | 3.2 | 4.8 | 0.00 | 0.00 | 0.00 | 86 | 1013.5 |
| 20260509092340 | 9 | 218 | 3.2 | 4.8 | 0.00 | 0.00 | 0.00 | 86 | 1013.3 |
| 20260509091838 | 9 | 133 | 1.6 | 3.2 | 0.00 | 0.00 | 0.00 | 85 | 1013.5 |
| 20260509091335 | 9 | 76 | 3.2 | 3.2 | 0.00 | 0.00 | 0.00 | 85 | 1013.6 |
| 20260509090832 | 9 | 296 | 3.2 | 4.8 | 0.00 | 0.00 | 0.00 | 85 | 1013.6 |
| 20260509090329 | 9 | 227 | 3.2 | 4.8 | 0.00 | 0.00 | 0.00 | 86 | 1013.4 |
| 20260509085826 | 9 | 114 | 0.0 | 4.8 | 0.00 | 0.00 | 0.00 | 86 | 1013.5 |
| 20260509085324 | 9 | 184 | 3.2 | 3.2 | 0.00 | 0.00 | 0.00 | 86 | 1013.5 |
| 20260509084820 | 9 | 234 | 3.2 | 4.8 | 0.00 | 0.00 | 0.00 | 85 | 1013.5 |
| 20260509084317 | 9 | 214 | 0.0 | 3.2 | 0.00 | 0.00 | 0.00 | 85 | 1013.6 |
| 20260509083815 | 9 | 11 | 3.2 | 4.8 | 0.00 | 0.00 | 0.00 | 85 | 1013.3 |
| 20260509083312 | 9 | 16 | 1.6 | 3.2 | 0.00 | 0.00 | 0.00 | 85 | 1013.3 |
| 20260509082808 | 9 | 19 | 3.2 | 4.8 | 0.00 | 0.00 | 0.00 | 85 | 1013.4 |
| 20260509082307 | 9 | 326 | 0.0 | 1.6 | 0.00 | 0.00 | 0.00 | 85 | 1013.5 |
| 20260509081802 | 9 | 113 | 0.0 | 0.0 | 0.00 | 0.00 | 0.00 | 84 | 1013.2 |
| 20260509081259 | 9 | 126 | 0.0 | 1.6 | 0.00 | 0.00 | 0.00 | 84 | 1013.5 |
| 20260509080758 | 9 | 101 | 0.0 | 0.0 | 0.00 | 0.00 | 0.00 | 84 | 1013.5 |
| 20260509080254 | 9 | 119 | 0.0 | 0.0 | 0.00 | 0.00 | 0.00 | 83 | 1013.4 |
| 20260509075753 | 9 | 119 | 0.0 | 0.0 | 0.00 | 0.00 | 0.00 | 84 | 1013.2 |
| 20260509075250 | 9 | 347 | 0.0 | 3.2 | 0.00 | 0.00 | 0.00 | 83 | 1013.2 |
| 20260509074747 | 9 | 31 | 1.6 | 3.2 | 0.00 | 0.00 | 0.00 | 84 | 1013.4 |
| 20260509074245 | 9 | 22 | 1.6 | 3.2 | 0.00 | 0.00 | 0.00 | 85 | 1013.3 |
| 20260509073740 | 9 | 52 | 0.0 | 0.0 | 0.00 | 0.00 | 0.00 | 85 | 1013.2 |
| 20260509073237 | 9 | 32 | 0.0 | 1.6 | 0.00 | 0.00 | 0.00 | 85 | 1013.2 |
| 20260509072734 | 9 | 202 | 0.0 | 1.6 | 0.00 | 0.00 | 0.00 | 85 | 1013.2 |
| 20260509072230 | 9 | 209 | 0.0 | 0.0 | 0.00 | 0.00 | 0.00 | 85 | 1013.3 |
| 20260509071727 | 9 | 76 | 0.0 | 1.6 | 0.00 | 0.00 | 0.00 | 84 | 1013.2 |
| 20260509071225 | 9 | 32 | 1.6 | 1.6 | 0.00 | 0.00 | 0.00 | 83 | 1013.1 |
| 20260509070721 | 9 | 32 | 0.0 | 1.6 | 0.00 | 0.00 | 0.00 | 83 | 1013.0 |
| 20260509070218 | 9 | 299 | 0.0 | 0.0 | 0.00 | 0.00 | 0.00 | 83 | 1013.4 |
| 20260509065714 | 9 | 81 | 3.2 | 3.2 | 0.00 | 0.00 | 0.00 | 83 | 1013.3 |
| 20260509065210 | 9 | 145 | 0.0 | 1.6 | 0.00 | 0.00 | 0.00 | 83 | 1013.4 |
| 20260509064707 | 9 | 147 | 0.0 | 1.6 | 0.00 | 0.00 | 0.00 | 84 | 1013.2 |
| 20260509064205 | 10 | 32 | 0.0 | 0.0 | 0.00 | 0.00 | 0.00 | 83 | 1013.3 |
| 20260509063702 | 10 | 181 | 0.0 | 0.0 | 0.00 | 0.00 | 0.00 | 83 | 1013.2 |
| 20260509063158 | 9 | 221 | 0.0 | 1.6 | 0.00 | 0.00 | 0.00 | 83 | 1013.7 |
| 20260509062655 | 9 | 119 | 0.0 | 1.6 | 0.00 | 0.00 | 0.00 | 83 | 1013.4 |
| 20260509062152 | 9 | 55 | 0.0 | 0.0 | 0.00 | 0.00 | 0.00 | 82 | 1013.3 |
| 20260509061649 | 9 | 41 | 1.6 | 1.6 | 0.00 | 0.00 | 0.00 | 81 | 1013.3 |
| 20260509061146 | 10 | 96 | 0.0 | 1.6 | 0.00 | 0.00 | 0.00 | 81 | 1013.4 |
| 20260509060644 | 10 | 44 | 0.0 | 0.0 | 0.00 | 0.00 | 0.00 | 81 | 1013.4 |
| 20260509060140 | 10 | 142 | 0.0 | 1.6 | 0.00 | 0.00 | 0.00 | 81 | 1013.5 |
| 20260509055636 | 10 | 49 | 0.0 | 1.6 | 0.00 | 0.00 | 0.00 | 82 | 1013.6 |
| 20260509055132 | 10 | 141 | 0.0 | 0.0 | 0.00 | 0.00 | 0.00 | 81 | 1013.7 |
| 20260509054629 | 10 | 201 | 0.0 | 1.6 | 0.00 | 0.00 | 0.00 | 83 | 1013.7 |
| 20260509054126 | 10 | 32 | 0.0 | 0.0 | 0.00 | 0.00 | 0.00 | 82 | 1013.7 |
| 20260509053625 | 10 | 135 | 0.0 | 0.0 | 0.00 | 0.00 | 0.00 | 82 | 1013.9 |
| 20260509053121 | 10 | 199 | 0.0 | 1.6 | 0.00 | 0.00 | 0.00 | 83 | 1013.9 |
| 20260509052619 | 10 | 147 | 0.0 | 0.0 | 0.00 | 0.00 | 0.00 | 83 | 1013.7 |
| 20260509052116 | 10 | 89 | 0.0 | 0.0 | 0.00 | 0.00 | 0.00 | 82 | 1014.0 |
| 20260509051614 | 10 | 98 | 0.0 | 1.6 | 0.00 | 0.00 | 0.00 | 80 | 1014.2 |
| 20260509051111 | 10 | 147 | 0.0 | 0.0 | 0.00 | 0.00 | 0.00 | 80 | 1014.0 |
| 20260509050609 | 10 | 103 | 0.0 | 0.0 | 0.00 | 0.00 | 0.00 | 81 | 1014.2 |
| 20260509050104 | 10 | 174 | 0.0 | 0.0 | 0.00 | 0.00 | 0.00 | 80 | 1014.1 |
| 20260509045603 | 10 | 89 | 0.0 | 1.6 | 0.00 | 0.00 | 0.00 | 80 | 1014.3 |
| 20260509045058 | 10 | 233 | 0.0 | 0.0 | 0.00 | 0.00 | 0.00 | 80 | 1014.5 |
| 20260509044556 | 10 | 185 | 0.0 | 1.6 | 0.00 | 0.00 | 0.00 | 80 | 1014.4 |
| 20260509044053 | 10 | 124 | 0.0 | 1.6 | 0.00 | 0.00 | 0.00 | 79 | 1014.2 |
| 20260509043550 | 10 | 79 | 3.2 | 4.8 | 0.00 | 0.00 | 0.00 | 80 | 1014.3 |
| 20260509043045 | 10 | 242 | 1.6 | 6.4 | 0.00 | 0.00 | 0.00 | 79 | 1014.2 |
| 20260509042542 | 10 | 63 | 4.8 | 6.4 | 0.00 | 0.00 | 0.00 | 79 | 1014.1 |
| 20260509042038 | 10 | 131 | 0.0 | 0.0 | 0.00 | 0.00 | 0.00 | 79 | 1014.2 |
| 20260509041535 | 10 | 89 | 0.0 | 0.0 | 0.00 | 0.00 | 0.00 | 79 | 1014.4 |
| 20260509041033 | 10 | 212 | 0.0 | 1.6 | 0.00 | 0.00 | 0.00 | 78 | 1014.5 |
| 20260509040531 | 10 | 218 | 0.0 | 0.0 | 0.00 | 0.00 | 0.00 | 79 | 1014.3 |
| 20260509040027 | 10 | 157 | 0.0 | 0.0 | 0.00 | 0.00 | 0.00 | 78 | 1014.4 |
| 20260509035524 | 10 | 135 | 0.0 | 0.0 | 0.00 | 0.00 | 0.00 | 77 | 1014.4 |
| 20260509035021 | 10 | 119 | 0.0 | 1.6 | 0.00 | 0.00 | 0.00 | 78 | 1014.4 |
| 20260509034519 | 10 | 48 | 1.6 | 3.2 | 0.00 | 0.00 | 0.00 | 79 | 1014.3 |
| 20260509034016 | 10 | 18 | 1.6 | 3.2 | 0.00 | 0.00 | 0.00 | 79 | 1014.5 |
| 20260509033513 | 10 | 42 | 1.6 | 3.2 | 0.00 | 0.00 | 0.00 | 78 | 1014.5 |
| 20260509033010 | 10 | 249 | 0.0 | 0.0 | 0.00 | 0.00 | 0.00 | 77 | 1014.4 |
| 20260509032507 | 10 | 195 | 1.6 | 1.6 | 0.00 | 0.00 | 0.00 | 78 | 1014.4 |
| 20260509032004 | 10 | 173 | 0.0 | 3.2 | 0.00 | 0.00 | 0.00 | 76 | 1014.3 |
| 20260509031501 | 10 | 89 | 0.0 | 1.6 | 0.00 | 0.00 | 0.00 | 76 | 1014.5 |